Weather History for MMTG - September, 2013

Change the Weather History Date:

Saturday, September 21, 2013

  Actual Average Record
Temperature  
Mean Temperature 78 °F -  
Max Temperature 87 °F - - ()
Min Temperature 69 °F - - ()
Cooling Degree Days 13    
Growing Degree Days 28 (Base 50)    
Moisture  
Dew Point 70 °F    
Average Humidity 74    
Maximum Humidity 100    
Minimum Humidity 49    
Precipitation  
Precipitation 0.02 in - - ()
Sea Level Pressure  
Sea Level Pressure 29.77 in    
Wind  
Wind Speed 2 mph ()    
Max Wind Speed 12 mph    
Max Gust Speed -    
Visibility 8.9 miles    
Events Rain    
T = Trace of Precipitation, MM = Missing Value Source: Averaged Metar Reports

Daily Weather History Graph

Daily Weather History Graph

Search for Another Location

Airport or City:

Trip Planner

Search our weather history database for the weather conditions in past years. The results will help you decide how hot, cold, wet, or windy it might be!

Date:

Astronomy

Sep. 21, 2013 Rise Set
Actual Time 7:01 AM CDT 7:08 PM CDT
Civil Twilight 6:39 AM CDT 7:30 PM CDT
Nautical Twilight 6:14 AM CDT 7:55 PM CDT
Astronomical Twilight 5:49 AM CDT 8:20 PM CDT
Moon 8:50 PM CDT (9/21) 8:53 AM CDT (9/21)
Length of Visible Light 12h 50m
Length of Day
12h 07m
Waning Gibbous, 94% of the Moon is Illuminated
Sep 21
Waning Gibbous
Sep 26
Last Quarter
Oct 4
New
Oct 11
First Quarter
Oct 18
Full

Hourly Weather History & Observations

Time (CDT) Temp. Heat Index Dew Point Humidity Pressure Visibility Wind Dir Wind Speed Gust Speed Precip Events Conditions
12:41 AM 75 °F - 71 °F 83% 29.78 in 16 mi Calm Calm - -   Partly Cloudy
12:42 AM 73.4 °F - 69.8 °F 88% 29.79 in 10.0 mi Calm Calm - N/A   Overcast
3:46 AM 73 °F - 70 °F 87% 29.75 in 9 mi Calm Calm - - Rain Light Drizzle
5:45 AM 69.8 °F - 69.8 °F 100% 29.84 in 7.0 mi Calm Calm - N/A   Mostly Cloudy
6:42 AM 72 °F - 70 °F 93% 29.75 in 9 mi Calm Calm - -   Mostly Cloudy
6:48 AM 69.8 °F - 68.0 °F 94% 29.75 in 8.0 mi Calm Calm - N/A   Mostly Cloudy
7:48 AM 69.8 °F - 68.0 °F 94% 29.86 in 8.0 mi Calm Calm - N/A   Mostly Cloudy
8:49 AM 73.4 °F - 69.8 °F 88% 29.88 in 10.0 mi Calm Calm - N/A   Mostly Cloudy
9:42 AM 78 °F - 71 °F 74% 29.80 in 9 mi East 2.2 mph - -   Partly Cloudy
9:47 AM 78.8 °F - 69.8 °F 74% 29.78 in 10.0 mi SSE 2.3 mph - N/A   Mostly Cloudy
10:44 AM 82.4 °F 85.4 °F 68.0 °F 62% 29.87 in 10.0 mi East 5.8 mph - N/A   Scattered Clouds
11:40 AM 84.2 °F 88.4 °F 69.8 °F 62% 29.86 in 10.0 mi East 5.8 mph - N/A   Mostly Cloudy
12:40 PM 84.2 °F 87.3 °F 68.0 °F 58% 29.74 in 8.0 mi East 11.5 mph - N/A   Mostly Cloudy
12:41 PM 86 °F - 70 °F 49% 29.75 in 9 mi East 2.2 mph - -   Partly Cloudy
1:44 PM 84.2 °F 88.4 °F 69.8 °F 62% 29.82 in 8.0 mi South 8.1 mph - N/A   Mostly Cloudy
2:47 PM 84.2 °F 88.4 °F 69.8 °F 62% 29.80 in 8.0 mi SE 9.2 mph - N/A   Mostly Cloudy
3:41 PM 84.2 °F 88.4 °F 69.8 °F 62% 29.67 in 8.0 mi SE 8.1 mph - N/A   Mostly Cloudy
3:42 PM 85 °F - 71 °F 55% 29.67 in 9 mi East 2.2 mph - -   Partly Cloudy
4:40 PM 82.4 °F 86.3 °F 69.8 °F 66% 29.77 in 8.0 mi SE 5.8 mph - N/A   Mostly Cloudy
5:40 PM 80.6 °F 83.9 °F 69.8 °F 70% 29.77 in 8.0 mi SSE 4.6 mph - N/A   Overcast
6:42 PM 81 °F - 72 °F 67% 29.65 in 9 mi Calm Calm - -   Partly Cloudy
6:44 PM 78.8 °F - 68.0 °F 69% 29.67 in 8.0 mi Calm Calm - N/A   Mostly Cloudy
7:43 PM 78.8 °F - 68.0 °F 69% 29.78 in 8.0 mi WSW 4.6 mph - N/A   Mostly Cloudy
8:51 PM 78.8 °F - 69.8 °F 74% 29.81 in 8.0 mi East 8.1 mph - N/A   Mostly Cloudy
9:43 PM 77 °F - 72 °F 79% 29.73 in 9 mi Calm Calm - -   Scattered Clouds
9:50 PM 77.0 °F - 68.0 °F 74% 29.73 in 8.0 mi Calm Calm - N/A   Mostly Cloudy
10:43 PM 75.2 °F - 69.8 °F 83% 29.84 in 8.0 mi Calm Calm - N/A   Mostly Cloudy